TimeAKDT,TemperatureF,Dew PointF,Humidity,Sea Level PressureIn,VisibilityMPH,Wind Direction,Wind SpeedMPH,Gust SpeedMPH,PrecipitationIn,Events,Conditions,WindDirDegrees,DateUTC
12:16 AM,14.0,6.8,73,29.73,10.0,NNE,9.2,-,N/A,,Clear,30,2013-10-04 08:16:00
12:36 AM,12.2,6.8,79,29.73,10.0,NNE,11.5,-,N/A,,Clear,30,2013-10-04 08:36:00
12:56 AM,12.2,6.8,79,29.73,10.0,NNE,10.4,-,N/A,,Clear,30,2013-10-04 08:56:00
1:16 AM,12.2,6.8,79,29.73,10.0,NNE,8.1,-,N/A,,Clear,30,2013-10-04 09:16:00
1:36 AM,14.0,8.6,79,29.73,10.0,North,8.1,-,N/A,,Clear,10,2013-10-04 09:36:00
1:56 AM,12.2,5.0,73,29.73,10.0,NNE,9.2,-,N/A,,Clear,20,2013-10-04 09:56:00
2:16 AM,12.2,5.0,73,29.74,10.0,North,4.6,-,N/A,,Clear,10,2013-10-04 10:16:00
2:36 AM,12.2,5.0,73,29.73,10.0,North,5.8,-,N/A,,Partly Cloudy,350,2013-10-04 10:36:00
2:56 AM,15.8,8.6,73,29.73,10.0,North,8.1,-,N/A,,Mostly Cloudy,10,2013-10-04 10:56:00
3:16 AM,15.8,8.6,73,29.73,10.0,NNE,9.2,-,N/A,,Overcast,20,2013-10-04 11:16:00
3:36 AM,14.0,8.6,79,29.73,10.0,NNE,8.1,-,N/A,,Mostly Cloudy,20,2013-10-04 11:36:00
3:56 AM,14.0,6.8,73,29.73,10.0,NNE,8.1,-,N/A,,Mostly Cloudy,30,2013-10-04 11:56:00
4:16 AM,12.2,6.8,79,29.74,10.0,North,8.1,-,N/A,,Overcast,10,2013-10-04 12:16:00
4:36 AM,12.2,6.8,79,29.74,10.0,North,6.9,-,N/A,,Overcast,10,2013-10-04 12:36:00
4:56 AM,15.8,8.6,73,29.73,10.0,NNE,6.9,-,N/A,,Mostly Cloudy,30,2013-10-04 12:56:00
5:16 AM,12.2,6.8,79,29.73,10.0,NNE,9.2,-,N/A,,Mostly Cloudy,20,2013-10-04 13:16:00
5:36 AM,12.2,6.8,79,29.73,10.0,NNE,10.4,-,N/A,,Mostly Cloudy,20,2013-10-04 13:36:00
5:56 AM,10.4,3.2,73,29.74,10.0,NNE,9.2,-,N/A,,Overcast,20,2013-10-04 13:56:00
6:16 AM,14.0,8.6,79,29.74,10.0,North,8.1,-,N/A,,Overcast,10,2013-10-04 14:16:00
6:36 AM,14.0,6.8,73,29.74,10.0,North,8.1,-,N/A,,Overcast,10,2013-10-04 14:36:00
6:56 AM,12.2,6.8,79,29.74,10.0,North,9.2,-,N/A,,Overcast,350,2013-10-04 14:56:00
7:16 AM,14.0,6.8,73,29.75,10.0,North,8.1,-,N/A,,Overcast,10,2013-10-04 15:16:00
7:36 AM,14.0,6.8,73,29.75,10.0,North,8.1,-,N/A,,Overcast,360,2013-10-04 15:36:00
7:56 AM,14.0,6.8,73,29.75,10.0,North,6.9,-,N/A,,Overcast,10,2013-10-04 15:56:00
8:16 AM,12.2,6.8,79,29.75,10.0,North,8.1,-,N/A,,Overcast,360,2013-10-04 16:16:00
8:36 AM,12.2,6.8,79,29.74,10.0,North,6.9,-,N/A,,Overcast,360,2013-10-04 16:36:00
8:56 AM,12.2,6.8,79,29.75,10.0,North,6.9,-,N/A,,Overcast,360,2013-10-04 16:56:00
9:16 AM,12.2,6.8,79,29.74,10.0,NNE,8.1,-,N/A,,Overcast,20,2013-10-04 17:16:00
9:36 AM,12.2,6.8,79,29.74,10.0,NNE,9.2,-,N/A,,Overcast,30,2013-10-04 17:36:00
9:56 AM,12.2,6.8,79,29.74,10.0,NNE,8.1,-,N/A,,Overcast,20,2013-10-04 17:56:00
10:16 AM,12.2,6.8,79,29.74,0.5,NNE,5.8,-,N/A,,Overcast,20,2013-10-04 18:16:00
10:36 AM,12.2,6.8,79,29.74,0.2,NE,5.8,-,N/A,,Overcast,50,2013-10-04 18:36:00
10:56 AM,12.2,6.8,79,29.74,0.2,NE,4.6,-,N/A,,Overcast,50,2013-10-04 18:56:00
11:16 AM,12.2,6.8,79,29.74,0.5,NNE,6.9,-,N/A,,Overcast,20,2013-10-04 19:16:00
11:36 AM,12.2,6.8,79,29.75,0.2,NE,5.8,-,N/A,,Overcast,40,2013-10-04 19:36:00
11:56 AM,12.2,6.8,79,29.75,0.2,NNE,4.6,-,N/A,,Overcast,30,2013-10-04 19:56:00
12:16 PM,12.2,6.8,79,29.74,1.5,NNE,5.8,-,N/A,,Overcast,20,2013-10-04 20:16:00
12:36 PM,14.0,6.8,73,29.75,3.0,NNE,5.8,-,N/A,,Overcast,20,2013-10-04 20:36:00
12:56 PM,14.0,8.6,79,29.75,10.0,North,4.6,-,N/A,,Mostly Cloudy,360,2013-10-04 20:56:00
1:16 PM,15.8,8.6,73,29.75,10.0,NNE,4.6,-,N/A,,Partly Cloudy,20,2013-10-04 21:16:00
1:36 PM,15.8,10.4,79,29.75,10.0,North,5.8,-,N/A,,Clear,10,2013-10-04 21:36:00
1:56 PM,17.6,10.4,73,29.75,10.0,North,4.6,-,N/A,,Clear,350,2013-10-04 21:56:00
2:16 PM,17.6,10.4,73,29.75,10.0,North,4.6,-,N/A,,Clear,10,2013-10-04 22:16:00
2:36 PM,17.6,12.2,79,29.75,10.0,North,5.8,-,N/A,,Clear,10,2013-10-04 22:36:00
2:56 PM,17.6,12.2,79,29.75,10.0,NNE,6.9,-,N/A,,Clear,20,2013-10-04 22:56:00
3:16 PM,17.6,12.2,79,29.75,10.0,NNE,8.1,-,N/A,,Clear,30,2013-10-04 23:16:00
3:36 PM,17.6,10.4,73,29.75,10.0,NNE,5.8,-,N/A,,Clear,30,2013-10-04 23:36:00
3:56 PM,17.6,10.4,73,29.75,10.0,NNE,5.8,-,N/A,,Clear,30,2013-10-04 23:56:00
4:16 PM,17.6,10.4,73,29.75,10.0,NNE,5.8,-,N/A,,Clear,30,2013-10-05 00:16:00
4:36 PM,17.6,10.4,73,29.74,10.0,NNE,4.6,-,N/A,,Clear,20,2013-10-05 00:36:00
4:56 PM,17.6,10.4,73,29.74,10.0,NNE,4.6,-,N/A,,Clear,20,2013-10-05 00:56:00
5:16 PM,17.6,10.4,73,29.74,10.0,NNE,5.8,-,N/A,,Clear,30,2013-10-05 01:16:00
5:36 PM,17.6,10.4,73,29.74,10.0,NNE,3.5,-,N/A,,Clear,20,2013-10-05 01:36:00
5:56 PM,17.6,8.6,68,29.74,10.0,NNE,3.5,-,N/A,,Clear,20,2013-10-05 01:56:00
6:16 PM,15.8,8.6,73,29.74,10.0,North,3.5,-,N/A,,Clear,10,2013-10-05 02:16:00
6:36 PM,15.8,6.8,68,29.74,10.0,North,3.5,-,N/A,,Clear,10,2013-10-05 02:36:00
6:56 PM,14.0,6.8,73,29.75,10.0,NW,3.5,-,N/A,,Clear,320,2013-10-05 02:56:00
7:16 PM,10.4,3.2,73,29.75,10.0,Calm,Calm,-,N/A,,Clear,0,2013-10-05 03:16:00
7:36 PM,10.4,3.2,73,29.75,10.0,Calm,Calm,-,N/A,,Clear,0,2013-10-05 03:36:00
7:56 PM,8.6,1.4,73,29.75,10.0,Calm,Calm,-,N/A,,Clear,0,2013-10-05 03:56:00
8:16 PM,8.6,1.4,73,29.74,10.0,Calm,Calm,-,N/A,,Clear,0,2013-10-05 04:16:00
8:36 PM,8.6,3.2,79,29.74,10.0,Calm,Calm,-,N/A,,Clear,0,2013-10-05 04:36:00
8:56 PM,8.6,1.4,73,29.74,10.0,Calm,Calm,-,N/A,,Clear,0,2013-10-05 04:56:00
9:16 PM,8.6,1.4,73,29.74,10.0,Calm,Calm,-,N/A,,Clear,0,2013-10-05 05:16:00
9:36 PM,8.6,1.4,73,29.73,10.0,SSW,3.5,-,N/A,,Clear,200,2013-10-05 05:36:00
9:56 PM,10.4,3.2,73,29.73,10.0,Calm,Calm,-,N/A,,Clear,0,2013-10-05 05:56:00
10:16 PM,10.4,3.2,73,29.73,10.0,Calm,Calm,-,N/A,,Clear,0,2013-10-05 06:16:00
10:36 PM,10.4,3.2,73,29.73,10.0,Calm,Calm,-,N/A,,Clear,0,2013-10-05 06:36:00
10:56 PM,10.4,3.2,73,29.73,10.0,Calm,Calm,-,N/A,,Clear,0,2013-10-05 06:56:00
11:16 PM,8.6,1.4,73,29.73,9.0,Calm,Calm,-,N/A,,Clear,0,2013-10-05 07:16:00
11:36 PM,10.4,3.2,73,29.74,10.0,Calm,Calm,-,N/A,,Clear,0,2013-10-05 07:36:00
11:56 PM,14.0,8.6,79,29.74,10.0,Calm,Calm,-,N/A,,Clear,0,2013-10-05 07:56:00